Year,Month,Day,Hour,Minute,Value (Times are PST for temperature in C)
2019,03,18,00,00,8.20
2019,03,18,00,01,8.20
2019,03,18,00,02,8.10
2019,03,18,00,03,8.10
2019,03,18,00,04,8.00
2019,03,18,00,05,8.00
2019,03,18,00,06,8.00
2019,03,18,00,07,7.90
2019,03,18,00,08,7.90
2019,03,18,00,09,7.80
2019,03,18,00,10,7.80
2019,03,18,00,11,7.80
2019,03,18,00,12,7.70
2019,03,18,00,13,7.70
2019,03,18,00,14,7.70
2019,03,18,00,15,7.60
2019,03,18,00,16,7.60
2019,03,18,00,17,7.60
2019,03,18,00,18,7.50
2019,03,18,00,19,7.50
2019,03,18,00,20,7.40
2019,03,18,00,21,7.40
2019,03,18,00,22,7.40
2019,03,18,00,23,7.30
2019,03,18,00,24,7.30
2019,03,18,00,25,7.30
2019,03,18,00,26,7.20
2019,03,18,00,27,7.20
2019,03,18,00,28,7.20
2019,03,18,00,29,7.10
2019,03,18,00,30,7.10
2019,03,18,00,31,7.10
2019,03,18,00,32,7.10
2019,03,18,00,33,7.00
2019,03,18,00,34,7.00
2019,03,18,00,35,7.00
2019,03,18,00,36,6.90
2019,03,18,00,37,6.90
2019,03,18,00,38,6.90
2019,03,18,00,39,6.90
2019,03,18,00,40,6.90
2019,03,18,00,41,6.80
2019,03,18,00,42,6.80
2019,03,18,00,43,6.80
2019,03,18,00,44,6.80
2019,03,18,00,45,6.80
2019,03,18,00,46,6.70
2019,03,18,00,47,6.70
2019,03,18,00,48,6.70
2019,03,18,00,49,6.70
2019,03,18,00,50,6.60
2019,03,18,00,51,6.60
2019,03,18,00,52,6.60
2019,03,18,00,53,6.60
2019,03,18,00,54,6.60
2019,03,18,00,55,6.60
2019,03,18,00,56,6.60
2019,03,18,00,57,6.50
2019,03,18,00,58,6.50
2019,03,18,00,59,6.50
2019,03,18,01,00,6.50
2019,03,18,01,01,6.40
2019,03,18,01,02,6.40
2019,03,18,01,03,6.40
2019,03,18,01,04,6.40
2019,03,18,01,05,6.40
2019,03,18,01,06,6.40
2019,03,18,01,07,6.40
2019,03,18,01,08,6.30
2019,03,18,01,09,6.30
2019,03,18,01,10,6.30
2019,03,18,01,11,6.30
2019,03,18,01,12,6.30
2019,03,18,01,13,6.30
2019,03,18,01,14,6.30
2019,03,18,01,15,6.30
2019,03,18,01,16,6.30
2019,03,18,01,17,6.30
2019,03,18,01,18,6.30
2019,03,18,01,19,6.30
2019,03,18,01,20,6.30
2019,03,18,01,21,6.20
2019,03,18,01,22,6.20
2019,03,18,01,23,6.20
2019,03,18,01,24,6.20
2019,03,18,01,25,6.20
2019,03,18,01,26,6.20
2019,03,18,01,27,6.10
2019,03,18,01,28,6.10
2019,03,18,01,29,6.10
2019,03,18,01,30,6.10
2019,03,18,01,31,6.10
2019,03,18,01,32,6.00
2019,03,18,01,33,6.00
2019,03,18,01,34,6.00
2019,03,18,01,35,5.90
2019,03,18,01,36,5.90
2019,03,18,01,37,5.90
2019,03,18,01,38,5.90
2019,03,18,01,39,5.90
2019,03,18,01,40,5.80
2019,03,18,01,41,5.80
2019,03,18,01,42,5.80
2019,03,18,01,43,5.80
2019,03,18,01,44,5.80
2019,03,18,01,45,5.80
2019,03,18,01,46,5.80
2019,03,18,01,47,5.80
2019,03,18,01,48,5.80
2019,03,18,01,49,5.80
2019,03,18,01,50,5.70
2019,03,18,01,51,5.70
2019,03,18,01,52,5.70
2019,03,18,01,53,5.70
2019,03,18,01,54,5.70
2019,03,18,01,55,5.70
2019,03,18,01,56,5.70
2019,03,18,01,57,5.70
2019,03,18,01,58,5.70
2019,03,18,01,59,5.70
2019,03,18,02,00,5.70
2019,03,18,02,01,5.70
2019,03,18,02,02,5.70
2019,03,18,02,03,5.70
2019,03,18,02,04,5.70
2019,03,18,02,05,5.70
2019,03,18,02,06,5.70
2019,03,18,02,07,5.70
2019,03,18,02,08,5.80
2019,03,18,02,09,5.80
2019,03,18,02,10,5.80
2019,03,18,02,11,5.90
2019,03,18,02,12,5.90
2019,03,18,02,13,6.00
2019,03,18,02,14,6.10
2019,03,18,02,15,6.20
2019,03,18,02,16,6.20
2019,03,18,02,17,6.30
2019,03,18,02,18,6.40
2019,03,18,02,19,6.50
2019,03,18,02,20,6.70
2019,03,18,02,21,6.80
2019,03,18,02,22,7.00
2019,03,18,02,23,7.20
2019,03,18,02,24,7.30
2019,03,18,02,25,7.50
2019,03,18,02,26,7.60
2019,03,18,02,27,7.70
2019,03,18,02,28,7.80
2019,03,18,02,29,7.90
2019,03,18,02,30,8.10
2019,03,18,02,31,8.30
2019,03,18,02,32,8.60
2019,03,18,02,33,8.80
2019,03,18,02,34,9.00
2019,03,18,02,35,9.20
2019,03,18,02,36,9.30
2019,03,18,02,37,9.40
2019,03,18,02,38,9.50
2019,03,18,02,39,9.60
2019,03,18,02,40,9.60
2019,03,18,02,41,9.70
2019,03,18,02,42,9.70
2019,03,18,02,43,9.80
2019,03,18,02,44,9.80
2019,03,18,02,45,9.80
2019,03,18,02,46,9.90
2019,03,18,02,47,10.00
2019,03,18,02,48,10.00
2019,03,18,02,49,10.10
2019,03,18,02,50,10.10
2019,03,18,02,51,10.20
2019,03,18,02,52,10.30
2019,03,18,02,53,10.30
2019,03,18,02,54,10.40
2019,03,18,02,55,10.50
2019,03,18,02,56,10.50
2019,03,18,02,57,10.60
2019,03,18,02,58,10.60
2019,03,18,02,59,10.70
2019,03,18,03,00,10.70
2019,03,18,03,01,10.70
2019,03,18,03,02,10.70
2019,03,18,03,03,10.70
2019,03,18,03,04,10.70
2019,03,18,03,05,10.70
2019,03,18,03,06,10.70
2019,03,18,03,07,10.70
2019,03,18,03,08,10.70
2019,03,18,03,09,10.70
2019,03,18,03,10,10.70
2019,03,18,03,11,10.70
2019,03,18,03,12,10.70
2019,03,18,03,13,10.70
2019,03,18,03,14,10.60
2019,03,18,03,15,10.60
2019,03,18,03,16,10.60
2019,03,18,03,17,10.60
2019,03,18,03,18,10.60
2019,03,18,03,19,10.60
2019,03,18,03,20,10.70
2019,03,18,03,21,10.70
2019,03,18,03,22,10.70
2019,03,18,03,23,10.70
2019,03,18,03,24,10.70
2019,03,18,03,25,10.70
2019,03,18,03,26,10.70
2019,03,18,03,27,10.70
2019,03,18,03,28,10.70
2019,03,18,03,29,10.70
2019,03,18,03,30,10.70
2019,03,18,03,31,10.70
2019,03,18,03,32,10.70
2019,03,18,03,33,10.70
2019,03,18,03,34,10.70
2019,03,18,03,35,10.70
2019,03,18,03,36,10.70
2019,03,18,03,37,10.70
2019,03,18,03,38,10.70
2019,03,18,03,39,10.70
2019,03,18,03,40,10.80
2019,03,18,03,41,10.80
2019,03,18,03,42,10.80
2019,03,18,03,43,10.80
2019,03,18,03,44,10.80
2019,03,18,03,45,10.80
2019,03,18,03,46,10.80
2019,03,18,03,47,10.80
2019,03,18,03,48,10.80
2019,03,18,03,49,10.80
2019,03,18,03,50,10.80
2019,03,18,03,51,10.80
2019,03,18,03,52,10.80
2019,03,18,03,53,10.80
2019,03,18,03,54,10.80
2019,03,18,03,55,10.80
2019,03,18,03,56,10.80
2019,03,18,03,57,10.80
2019,03,18,03,58,10.70
2019,03,18,03,59,10.70
2019,03,18,04,00,10.70
2019,03,18,04,01,10.70
2019,03,18,04,02,10.70
2019,03,18,04,03,10.60
2019,03,18,04,04,10.60
2019,03,18,04,08,10.70
2019,03,18,04,09,10.70
2019,03,18,04,10,10.70
2019,03,18,04,11,10.70
2019,03,18,04,12,10.70
2019,03,18,04,13,10.70
2019,03,18,04,14,10.70
2019,03,18,04,15,10.70
2019,03,18,04,16,10.70
2019,03,18,04,17,10.70
2019,03,18,04,18,10.70
2019,03,18,04,19,10.60
2019,03,18,04,20,10.60
2019,03,18,04,21,10.60
2019,03,18,04,22,10.60
2019,03,18,04,23,10.60
2019,03,18,04,24,10.50
2019,03,18,04,25,10.50
2019,03,18,04,26,10.40
2019,03,18,04,27,10.40
2019,03,18,04,28,10.40
2019,03,18,04,29,10.40
2019,03,18,04,30,10.30
2019,03,18,04,31,10.30
2019,03,18,04,32,10.30
2019,03,18,04,33,10.30
2019,03,18,04,34,10.30
2019,03,18,04,35,10.30
2019,03,18,04,36,10.30
2019,03,18,04,37,10.30
2019,03,18,04,38,10.30
2019,03,18,04,39,10.30
2019,03,18,04,40,10.30
2019,03,18,04,41,10.30
2019,03,18,04,42,10.30
2019,03,18,04,43,10.30
2019,03,18,04,44,10.30
2019,03,18,04,45,10.30
2019,03,18,04,46,10.20
2019,03,18,04,47,10.20
2019,03,18,04,48,10.20
2019,03,18,04,49,10.20
2019,03,18,04,50,10.10
2019,03,18,04,51,10.10
2019,03,18,04,52,10.10
2019,03,18,04,53,10.00
2019,03,18,04,54,10.00
2019,03,18,04,55,9.90
2019,03,18,04,56,9.90
2019,03,18,04,57,9.80
2019,03,18,04,58,9.80
2019,03,18,04,59,9.70
2019,03,18,05,00,9.70
2019,03,18,05,01,9.70
2019,03,18,05,02,9.60
2019,03,18,05,03,9.60
2019,03,18,05,04,9.60
2019,03,18,05,05,9.60
2019,03,18,05,06,9.60
2019,03,18,05,07,9.60
2019,03,18,05,08,9.60
2019,03,18,05,09,9.60
2019,03,18,05,10,9.60
2019,03,18,05,11,9.60
2019,03,18,05,12,9.50
2019,03,18,05,13,9.50
2019,03,18,05,14,9.50
2019,03,18,05,15,9.50
2019,03,18,05,16,9.60
2019,03,18,05,17,9.60
2019,03,18,05,18,9.60
2019,03,18,05,19,9.60
2019,03,18,05,20,9.60
2019,03,18,05,21,9.60
2019,03,18,05,22,9.60
2019,03,18,05,23,9.60
2019,03,18,05,24,9.50
2019,03,18,05,25,9.50
2019,03,18,05,26,9.40
2019,03,18,05,27,9.30
2019,03,18,05,28,9.30
2019,03,18,05,29,9.30
2019,03,18,05,30,9.30
2019,03,18,05,31,9.30
2019,03,18,05,32,9.30
2019,03,18,05,33,9.30
2019,03,18,05,34,9.40
2019,03,18,05,35,9.40
2019,03,18,05,36,9.40
2019,03,18,05,37,9.40
2019,03,18,05,38,9.50
2019,03,18,05,39,9.50
2019,03,18,05,40,9.50
2019,03,18,05,41,9.50
2019,03,18,05,42,9.50
2019,03,18,05,43,9.50
2019,03,18,05,44,9.50
2019,03,18,05,45,9.50
2019,03,18,05,46,9.50
2019,03,18,05,47,9.50
2019,03,18,05,48,9.50
2019,03,18,05,49,9.50
2019,03,18,05,50,9.50
2019,03,18,05,51,9.50
2019,03,18,05,52,9.50
2019,03,18,05,53,9.50
2019,03,18,05,54,9.50
2019,03,18,05,55,9.50
2019,03,18,05,56,9.60
2019,03,18,05,57,9.60
2019,03,18,05,58,9.60
2019,03,18,05,59,9.60
2019,03,18,06,00,9.60
2019,03,18,06,01,9.60
2019,03,18,06,02,9.60
2019,03,18,06,03,9.60
2019,03,18,06,04,9.60
2019,03,18,06,05,9.60
2019,03,18,06,06,9.60
2019,03,18,06,07,9.60
2019,03,18,06,08,9.70
2019,03,18,06,09,9.70
2019,03,18,06,10,9.80
2019,03,18,06,11,9.80
2019,03,18,06,12,9.80
2019,03,18,06,13,9.90
2019,03,18,06,14,9.90
2019,03,18,06,15,9.90
2019,03,18,06,16,10.00
2019,03,18,06,17,10.00
2019,03,18,06,18,10.10
2019,03,18,06,19,10.10
2019,03,18,06,20,10.10
2019,03,18,06,21,10.10
2019,03,18,06,22,10.10
2019,03,18,06,23,10.10
2019,03,18,06,24,10.10
2019,03,18,06,25,10.10
2019,03,18,06,26,10.10
2019,03,18,06,27,10.20
2019,03,18,06,28,10.20
2019,03,18,06,29,10.20
2019,03,18,06,30,10.20
2019,03,18,06,31,10.20
2019,03,18,06,32,10.20
2019,03,18,06,33,10.20
2019,03,18,06,34,10.20
2019,03,18,06,35,10.20
2019,03,18,06,36,10.20
2019,03,18,06,37,10.20
2019,03,18,06,38,10.20
2019,03,18,06,39,10.20
2019,03,18,06,40,10.20
2019,03,18,06,41,10.20
2019,03,18,06,42,10.10
2019,03,18,06,43,10.10
2019,03,18,06,44,10.10
2019,03,18,06,45,10.10
2019,03,18,06,46,10.10
2019,03,18,06,47,10.10
2019,03,18,06,48,10.10
2019,03,18,06,49,10.10
2019,03,18,06,50,10.10
2019,03,18,06,51,10.10
2019,03,18,06,52,10.10
2019,03,18,06,53,10.10
2019,03,18,06,54,10.20
2019,03,18,06,55,10.20
2019,03,18,06,56,10.10
2019,03,18,06,57,10.10
2019,03,18,06,58,10.10
2019,03,18,06,59,10.10
2019,03,18,07,00,10.10
2019,03,18,07,01,10.10
2019,03,18,07,02,10.10
2019,03,18,07,03,10.20
2019,03,18,07,04,10.10
2019,03,18,07,05,10.10
2019,03,18,07,06,10.10
2019,03,18,07,07,10.00
2019,03,18,07,08,10.00
2019,03,18,07,09,9.90
2019,03,18,07,10,9.80
2019,03,18,07,11,9.70
2019,03,18,07,12,9.70
2019,03,18,07,13,9.60
2019,03,18,07,14,9.60
2019,03,18,07,15,9.60
2019,03,18,07,16,9.50
2019,03,18,07,17,9.50
2019,03,18,07,18,9.40
2019,03,18,07,19,9.40
2019,03,18,07,20,9.40
2019,03,18,07,21,9.30
2019,03,18,07,22,9.30
2019,03,18,07,23,9.30
2019,03,18,07,24,9.20
2019,03,18,07,25,9.10
2019,03,18,07,26,9.00
2019,03,18,07,27,9.00
2019,03,18,07,28,8.90
2019,03,18,07,29,8.80
2019,03,18,07,30,8.80
2019,03,18,07,31,8.80
2019,03,18,07,32,8.70
2019,03,18,07,33,8.70
2019,03,18,07,34,8.70
2019,03,18,07,35,8.70
2019,03,18,07,36,8.70
2019,03,18,07,37,8.70
2019,03,18,07,38,8.60
2019,03,18,07,39,8.60
2019,03,18,07,40,8.60
2019,03,18,07,41,8.60
2019,03,18,07,42,8.50
2019,03,18,07,43,8.40
2019,03,18,07,44,8.40
2019,03,18,07,45,8.30
2019,03,18,07,46,8.30
2019,03,18,07,47,8.30
2019,03,18,07,48,8.20
2019,03,18,07,49,8.20
2019,03,18,07,50,8.20
2019,03,18,07,51,8.10
2019,03,18,07,52,8.10
2019,03,18,07,53,8.10
2019,03,18,07,54,8.10
2019,03,18,07,55,8.00
2019,03,18,07,56,8.00
2019,03,18,07,57,7.90
2019,03,18,07,58,7.90
2019,03,18,07,59,7.90
2019,03,18,08,00,7.80
2019,03,18,08,01,7.80
2019,03,18,08,02,7.70
2019,03,18,08,03,7.70
2019,03,18,08,04,7.60
2019,03,18,08,05,7.60
2019,03,18,08,06,7.50
2019,03,18,08,07,7.50
2019,03,18,08,08,7.50
2019,03,18,08,09,7.50
2019,03,18,08,10,7.50
2019,03,18,08,11,7.50
2019,03,18,08,12,7.50
2019,03,18,08,13,7.60
2019,03,18,08,14,7.70
2019,03,18,08,15,7.90
2019,03,18,08,16,8.00
2019,03,18,08,17,8.10
2019,03,18,08,18,8.20
2019,03,18,08,19,8.30
2019,03,18,08,20,8.50
2019,03,18,08,21,8.60
2019,03,18,08,22,8.80
2019,03,18,08,23,8.90
2019,03,18,08,24,9.10
2019,03,18,08,25,9.30
2019,03,18,08,26,9.40
2019,03,18,08,27,9.60
2019,03,18,08,28,9.70
2019,03,18,08,29,9.80
2019,03,18,08,30,9.90
2019,03,18,08,31,10.00
2019,03,18,08,32,10.00
2019,03,18,08,33,10.10
2019,03,18,08,34,10.10
2019,03,18,08,35,10.20
2019,03,18,08,36,10.30
2019,03,18,08,37,10.30
2019,03,18,08,38,10.30
2019,03,18,08,39,10.40
2019,03,18,08,40,10.50
2019,03,18,08,41,10.50
2019,03,18,08,42,10.60
2019,03,18,08,43,10.70
2019,03,18,08,44,10.70
2019,03,18,08,45,10.80
2019,03,18,08,46,10.80
2019,03,18,08,47,10.80
2019,03,18,08,48,10.80
2019,03,18,08,49,10.90
2019,03,18,08,50,10.90
2019,03,18,08,51,10.90
2019,03,18,08,52,10.90
2019,03,18,08,53,10.90
2019,03,18,08,54,10.90
2019,03,18,08,55,10.90
2019,03,18,08,56,10.90
2019,03,18,08,57,11.00
2019,03,18,08,58,11.00
2019,03,18,08,59,11.00
2019,03,18,09,00,11.00
2019,03,18,09,01,11.00
2019,03,18,09,02,11.00
2019,03,18,09,03,11.00
2019,03,18,09,04,11.00
2019,03,18,09,05,11.00
2019,03,18,09,06,11.00
2019,03,18,09,07,11.00
2019,03,18,09,08,11.00
2019,03,18,09,09,11.00
2019,03,18,09,10,11.00
2019,03,18,09,11,11.00
2019,03,18,09,12,11.00
2019,03,18,09,13,11.00
2019,03,18,09,14,11.00
2019,03,18,09,15,11.00
2019,03,18,09,16,11.00
2019,03,18,09,17,11.00
2019,03,18,09,18,11.00
2019,03,18,09,19,11.00
2019,03,18,09,20,11.00
2019,03,18,09,21,11.10
2019,03,18,09,22,11.10
2019,03,18,09,23,11.10
2019,03,18,09,24,11.20
2019,03,18,09,25,11.20
2019,03,18,09,26,11.30
2019,03,18,09,27,11.30
2019,03,18,09,28,11.40
2019,03,18,09,29,11.40
2019,03,18,09,30,11.40
2019,03,18,09,31,11.50
2019,03,18,09,32,11.50
2019,03,18,09,33,11.50
2019,03,18,09,34,11.60
2019,03,18,09,35,11.60
2019,03,18,09,36,11.60
2019,03,18,09,37,11.60
2019,03,18,09,38,11.60
2019,03,18,09,39,11.60
2019,03,18,09,40,11.60
2019,03,18,09,41,11.50
2019,03,18,09,42,11.50
2019,03,18,09,43,11.50
2019,03,18,09,44,11.50
2019,03,18,09,45,11.50
2019,03,18,09,46,11.50
2019,03,18,09,47,11.50
2019,03,18,09,48,11.50
2019,03,18,09,49,11.50
2019,03,18,09,50,11.50
2019,03,18,09,51,11.50
2019,03,18,09,52,11.50
2019,03,18,09,53,11.60
2019,03,18,09,54,11.60
2019,03,18,09,55,11.60
2019,03,18,09,56,11.60
2019,03,18,09,57,11.60
2019,03,18,09,58,11.60
2019,03,18,09,59,11.60
2019,03,18,10,00,11.60
2019,03,18,10,01,11.60
2019,03,18,10,02,11.70
2019,03,18,10,03,11.70
2019,03,18,10,04,11.80
2019,03,18,10,05,11.80
2019,03,18,10,06,11.80
2019,03,18,10,07,11.90
2019,03,18,10,08,11.90
2019,03,18,10,09,11.90
2019,03,18,10,10,11.90
2019,03,18,10,11,12.00
2019,03,18,10,12,12.00
2019,03,18,10,13,12.10
2019,03,18,10,14,12.10
2019,03,18,10,15,12.10
2019,03,18,10,16,12.10
2019,03,18,10,17,12.10
2019,03,18,10,18,12.10
2019,03,18,10,19,12.10
2019,03,18,10,20,12.20
2019,03,18,10,21,12.20
2019,03,18,10,22,12.20
2019,03,18,10,23,12.20
2019,03,18,10,24,12.20
2019,03,18,10,25,12.20
2019,03,18,10,26,12.30
2019,03,18,10,27,12.30
2019,03,18,10,28,12.30
2019,03,18,10,29,12.30
2019,03,18,10,30,12.30
2019,03,18,10,31,12.30
2019,03,18,10,32,12.40
2019,03,18,10,33,12.40
2019,03,18,10,34,12.40
2019,03,18,10,35,12.50
2019,03,18,10,36,12.50
2019,03,18,10,37,12.60
2019,03,18,10,38,12.60
2019,03,18,10,39,12.60
2019,03,18,10,40,12.60
2019,03,18,10,41,12.60
2019,03,18,10,42,12.60
2019,03,18,10,43,12.60
2019,03,18,10,44,12.60
2019,03,18,10,45,12.70
2019,03,18,10,46,12.70
2019,03,18,10,47,12.70
2019,03,18,10,48,12.70
2019,03,18,10,49,12.70
2019,03,18,10,50,12.70
2019,03,18,10,51,12.70
2019,03,18,10,52,12.80
2019,03,18,10,53,12.80
2019,03,18,10,54,12.80
2019,03,18,10,55,12.80
2019,03,18,10,56,12.90
2019,03,18,10,57,12.90
2019,03,18,10,58,12.90
2019,03,18,10,59,12.90
2019,03,18,11,00,12.90
2019,03,18,11,01,13.00
2019,03,18,11,02,13.10
2019,03,18,11,03,13.10
2019,03,18,11,04,13.20
2019,03,18,11,05,13.20
2019,03,18,11,06,13.30
2019,03,18,11,07,13.30
2019,03,18,11,08,13.30
2019,03,18,11,09,13.30
2019,03,18,11,10,13.30
2019,03,18,11,11,13.30
2019,03,18,11,12,13.20
2019,03,18,11,13,13.20
2019,03,18,11,14,13.20
2019,03,18,11,15,13.20
2019,03,18,11,16,13.20
2019,03,18,11,17,13.20
2019,03,18,11,18,13.10
2019,03,18,11,19,13.10
2019,03,18,11,20,13.10
2019,03,18,11,21,13.10
2019,03,18,11,22,13.20
2019,03,18,11,23,13.20
2019,03,18,11,24,13.20
2019,03,18,11,25,13.20
2019,03,18,11,26,13.20
2019,03,18,11,27,13.20
2019,03,18,11,28,13.20
2019,03,18,11,29,13.20
2019,03,18,11,30,13.20
2019,03,18,11,31,13.20
2019,03,18,11,32,13.20
2019,03,18,11,33,13.10
2019,03,18,11,34,13.10
2019,03,18,11,35,13.00
2019,03,18,11,36,13.00
2019,03,18,11,37,13.10
2019,03,18,11,38,13.10
2019,03,18,11,39,13.10
2019,03,18,11,40,13.20
2019,03,18,11,41,13.20
2019,03,18,11,42,13.30
2019,03,18,11,43,13.30
2019,03,18,11,44,13.20
2019,03,18,11,45,13.20
2019,03,18,11,46,13.10
2019,03,18,11,47,13.10
2019,03,18,11,48,13.10
2019,03,18,11,49,13.10
2019,03,18,11,50,13.10
2019,03,18,11,51,13.10
2019,03,18,11,52,13.20
2019,03,18,11,53,13.20
2019,03,18,11,54,13.20
2019,03,18,11,55,13.20
2019,03,18,11,56,13.20
2019,03,18,11,57,13.30
2019,03,18,11,58,13.30
2019,03,18,11,59,13.30
2019,03,18,12,00,13.30
2019,03,18,12,01,13.40
2019,03,18,12,02,13.40
2019,03,18,12,03,13.50
2019,03,18,12,04,13.50
2019,03,18,12,05,13.60
2019,03,18,12,06,13.70
2019,03,18,12,07,13.80
2019,03,18,12,08,13.80
2019,03,18,12,09,13.90
2019,03,18,12,10,13.90
2019,03,18,12,11,13.90
2019,03,18,12,12,13.90
2019,03,18,12,13,13.90
2019,03,18,12,14,13.90
2019,03,18,12,15,13.90
2019,03,18,12,16,13.90
2019,03,18,12,17,13.90
2019,03,18,12,18,13.90
2019,03,18,12,19,14.00
2019,03,18,12,20,14.00
2019,03,18,12,21,14.10
2019,03,18,12,22,14.10
2019,03,18,12,23,14.10
2019,03,18,12,24,14.20
2019,03,18,12,25,14.20
2019,03,18,12,26,14.10
2019,03,18,12,27,14.10
2019,03,18,12,28,14.00
2019,03,18,12,29,13.90
2019,03,18,12,30,13.90
2019,03,18,12,31,14.00
2019,03,18,12,32,14.00
2019,03,18,12,33,14.00
2019,03,18,12,34,14.10
2019,03,18,12,35,14.10
2019,03,18,12,36,14.20
2019,03,18,12,37,14.20
2019,03,18,12,38,14.10
2019,03,18,12,39,14.10
2019,03,18,12,40,14.00
2019,03,18,12,41,13.90
2019,03,18,12,42,13.80
2019,03,18,12,43,13.80
2019,03,18,12,44,13.80
2019,03,18,12,45,13.80
2019,03,18,12,46,13.80
2019,03,18,12,47,13.80
2019,03,18,12,48,13.80
2019,03,18,12,49,13.80
2019,03,18,12,50,13.90
2019,03,18,12,51,14.00
2019,03,18,12,52,14.10
2019,03,18,12,53,14.20
2019,03,18,12,54,14.20
2019,03,18,12,55,14.30
2019,03,18,12,56,14.30
2019,03,18,12,57,14.40
2019,03,18,12,58,14.50
2019,03,18,12,59,14.60
2019,03,18,13,00,14.60
2019,03,18,13,01,14.70
2019,03,18,13,02,14.70
2019,03,18,13,03,14.70
2019,03,18,13,04,14.70
2019,03,18,13,05,14.70
2019,03,18,13,06,14.80
2019,03,18,13,07,14.80
2019,03,18,13,08,14.80
2019,03,18,13,09,14.80
2019,03,18,13,10,14.80
2019,03,18,13,11,14.80
2019,03,18,13,12,14.70
2019,03,18,13,13,14.70
2019,03,18,13,14,14.70
2019,03,18,13,15,14.70
2019,03,18,13,16,14.60
2019,03,18,13,17,14.60
2019,03,18,13,18,14.60
2019,03,18,13,19,14.60
2019,03,18,13,20,14.70
2019,03,18,13,21,14.70
2019,03,18,13,22,14.70
2019,03,18,13,23,14.70
2019,03,18,13,24,14.70
2019,03,18,13,25,14.80
2019,03,18,13,26,14.90
2019,03,18,13,27,15.00
2019,03,18,13,28,15.20
2019,03,18,13,29,15.20
2019,03,18,13,30,15.40
2019,03,18,13,31,15.50
2019,03,18,13,32,15.50
2019,03,18,13,33,15.50
2019,03,18,13,34,15.50
2019,03,18,13,35,15.60
2019,03,18,13,36,15.60
2019,03,18,13,37,15.60
2019,03,18,13,38,15.60
2019,03,18,13,39,15.60
2019,03,18,13,40,15.60
2019,03,18,13,41,15.50
2019,03,18,13,42,15.40
2019,03,18,13,43,15.40
2019,03,18,13,44,15.30
2019,03,18,13,45,15.40
2019,03,18,13,46,15.40
2019,03,18,13,47,15.40
2019,03,18,13,48,15.50
2019,03,18,13,49,15.60
2019,03,18,13,50,15.60
2019,03,18,13,51,15.70
2019,03,18,13,52,15.80
2019,03,18,13,53,15.80
2019,03,18,13,54,15.90
2019,03,18,13,55,15.90
2019,03,18,13,56,16.00
2019,03,18,13,57,16.10
2019,03,18,13,58,16.20
2019,03,18,13,59,16.30
2019,03,18,14,00,16.30
2019,03,18,14,01,16.30
2019,03,18,14,02,16.30
2019,03,18,14,03,16.20
2019,03,18,14,04,16.10
2019,03,18,14,05,16.10
2019,03,18,14,06,16.00
2019,03,18,14,07,16.00
2019,03,18,14,08,16.00
2019,03,18,14,09,15.90
2019,03,18,14,10,15.80
2019,03,18,14,11,15.80
2019,03,18,14,12,15.80
2019,03,18,14,13,15.80
2019,03,18,14,14,15.80
2019,03,18,14,15,15.80
2019,03,18,14,16,15.80
2019,03,18,14,17,15.80
2019,03,18,14,18,15.80
2019,03,18,14,19,15.90
2019,03,18,14,20,15.90
2019,03,18,14,21,15.90
2019,03,18,14,22,15.90
2019,03,18,14,23,16.00
2019,03,18,14,24,16.10
2019,03,18,14,25,16.20
2019,03,18,14,26,16.40
2019,03,18,14,27,16.50
2019,03,18,14,28,16.60
2019,03,18,14,29,16.60
2019,03,18,14,30,16.70
2019,03,18,14,31,16.70
2019,03,18,14,32,16.80
2019,03,18,14,33,16.80
2019,03,18,14,34,16.80
2019,03,18,14,35,16.70
2019,03,18,14,36,16.70
2019,03,18,14,37,16.70
2019,03,18,14,38,16.70
2019,03,18,14,39,16.70
2019,03,18,14,40,16.80
2019,03,18,14,41,16.80
2019,03,18,14,42,16.90
2019,03,18,14,43,16.90
2019,03,18,14,44,16.90
2019,03,18,14,45,16.80
2019,03,18,14,46,16.60
2019,03,18,14,47,16.50
2019,03,18,14,48,16.40
2019,03,18,14,49,16.40
2019,03,18,14,50,16.30
2019,03,18,14,51,16.30
2019,03,18,14,52,16.30
2019,03,18,14,53,16.40
2019,03,18,14,54,16.40
2019,03,18,14,55,16.50
2019,03,18,14,56,16.60
2019,03,18,14,57,16.70
2019,03,18,14,58,16.80
2019,03,18,14,59,16.80
2019,03,18,15,00,16.70
2019,03,18,15,01,16.70
2019,03,18,15,02,16.60
2019,03,18,15,03,16.60
2019,03,18,15,04,16.60
2019,03,18,15,05,16.70
2019,03,18,15,06,16.70
2019,03,18,15,07,16.70
2019,03,18,15,08,16.80
2019,03,18,15,09,16.80
2019,03,18,15,10,16.80
2019,03,18,15,11,16.80
2019,03,18,15,12,16.80
2019,03,18,15,13,16.90
2019,03,18,15,14,17.00
2019,03,18,15,15,17.00
2019,03,18,15,16,17.10
2019,03,18,15,17,17.20
2019,03,18,15,18,17.30
2019,03,18,15,19,17.40
2019,03,18,15,20,17.40
2019,03,18,15,21,17.50
2019,03,18,15,22,17.50
2019,03,18,15,23,17.60
2019,03,18,15,24,17.60
2019,03,18,15,25,17.70
2019,03,18,15,26,17.70
2019,03,18,15,27,17.70
2019,03,18,15,28,17.80
2019,03,18,15,29,17.80
2019,03,18,15,30,17.90
2019,03,18,15,31,17.90
2019,03,18,15,32,17.90
2019,03,18,15,33,17.90
2019,03,18,15,34,17.80
2019,03,18,15,35,17.80
2019,03,18,15,36,17.80
2019,03,18,15,37,17.80
2019,03,18,15,38,17.70
2019,03,18,15,39,17.60
2019,03,18,15,40,17.60
2019,03,18,15,41,17.50
2019,03,18,15,42,17.40
2019,03,18,15,43,17.40
2019,03,18,15,44,17.50
2019,03,18,15,45,17.50
2019,03,18,15,46,17.60
2019,03,18,15,47,17.60
2019,03,18,15,48,17.70
2019,03,18,15,49,17.70
2019,03,18,15,50,17.70
2019,03,18,15,51,17.60
2019,03,18,15,52,17.50
2019,03,18,15,53,17.40
2019,03,18,15,54,17.40
2019,03,18,15,55,17.30
2019,03,18,15,56,17.30
2019,03,18,15,57,17.30
2019,03,18,15,58,17.30
2019,03,18,15,59,17.30
2019,03,18,16,00,17.30
2019,03,18,16,01,17.40
2019,03,18,16,02,17.40
2019,03,18,16,03,17.40
2019,03,18,16,04,17.30
2019,03,18,16,05,17.30
2019,03,18,16,06,17.20
2019,03,18,16,07,17.20
2019,03,18,16,08,17.20
2019,03,18,16,09,17.20
2019,03,18,16,10,17.10
2019,03,18,16,11,17.10
2019,03,18,16,12,17.00
2019,03,18,16,13,17.00
2019,03,18,16,14,16.90
2019,03,18,16,15,16.90
2019,03,18,16,16,16.80
2019,03,18,16,17,16.80
2019,03,18,16,18,16.80
2019,03,18,16,19,16.80
2019,03,18,16,20,16.90
2019,03,18,16,21,16.90
2019,03,18,16,22,16.90
2019,03,18,16,23,16.90
2019,03,18,16,24,16.90
2019,03,18,16,25,16.90
2019,03,18,16,26,16.90
2019,03,18,16,27,16.90
2019,03,18,16,28,16.80
2019,03,18,16,29,16.80
2019,03,18,16,30,16.80
2019,03,18,16,31,16.70
2019,03,18,16,32,16.70
2019,03,18,16,33,16.80
2019,03,18,16,34,16.80
2019,03,18,16,35,16.90
2019,03,18,16,36,16.90
2019,03,18,16,37,16.90
2019,03,18,16,38,16.90
2019,03,18,16,39,17.00
2019,03,18,16,40,17.00
2019,03,18,16,41,17.10
2019,03,18,16,42,17.10
2019,03,18,16,43,17.10
2019,03,18,16,44,17.10
2019,03,18,16,45,17.00
2019,03,18,16,46,17.00
2019,03,18,16,47,16.90
2019,03,18,16,48,16.80
2019,03,18,16,49,16.80
2019,03,18,16,50,16.70
2019,03,18,16,51,16.70
2019,03,18,16,52,16.70
2019,03,18,16,53,16.70
2019,03,18,16,54,16.70
2019,03,18,16,55,16.70
2019,03,18,16,56,16.60
2019,03,18,16,57,16.60
2019,03,18,16,58,16.50
2019,03,18,16,59,16.50
2019,03,18,17,00,16.40
2019,03,18,17,01,16.40
2019,03,18,17,02,16.30
2019,03,18,17,03,16.30
2019,03,18,17,04,16.20
2019,03,18,17,05,16.20
2019,03,18,17,06,16.20
2019,03,18,17,07,16.20
2019,03,18,17,08,16.30
2019,03,18,17,09,16.30
2019,03,18,17,10,16.30
2019,03,18,17,11,16.30
2019,03,18,17,12,16.30
2019,03,18,17,13,16.30
2019,03,18,17,14,16.30
2019,03,18,17,15,16.30
2019,03,18,17,16,16.30
2019,03,18,17,17,16.40
2019,03,18,17,18,16.40
2019,03,18,17,19,16.40
2019,03,18,17,20,16.40
2019,03,18,17,21,16.50
2019,03,18,17,22,16.50
2019,03,18,17,23,16.50
2019,03,18,17,24,16.60
2019,03,18,17,25,16.60
2019,03,18,17,26,16.60
2019,03,18,17,27,16.60
2019,03,18,17,28,16.60
2019,03,18,17,29,16.50
2019,03,18,17,30,16.50
2019,03,18,17,31,16.50
2019,03,18,17,32,16.50
2019,03,18,17,33,16.50
2019,03,18,17,34,16.40
2019,03,18,17,35,16.40
2019,03,18,17,36,16.40